STARLINK-33903, 63828

Orbit data source: Space-Track

STARLINK-33903, 63828 is a payload satellite owned by SpaceX/Seattle (US) in LEO that was launched on Sun, 04 May 2025 UTC via an FALCON 9 launch vehicle from the Air Force Eastern Test Range (AFETR). Payload-class satellites include a variety of spacecraft equipped with specific instruments for various scientific and technological missions. These include communications satellites like Starlink; space stations such as the ISS; scientific satellites like the Hubble; Earth observation satellites from companies like Planet Labs, Umbra, and HawkEye 360; GPS; miniature CubeSats for education and research; and military/defense satellites.

Loading next visibility...
Identifier
63828, 2025-092AA
Orbit
LEO
Last TLE update
23 hours ago
Origin
Manufacturer
SpaceX/Seattle
Mission
Operational Commercial Communications
Bus & Motor
STARLINK V2MO, Unknown motor
Mass
575 kg wet, ~530 kg dry
Launch date (UTC)
2025-05-04 (2 months ago)
Launch vehicle
FALCON 9
Launch site
Air Force Eastern Test Range (AFETR)
Object type
Payload
Rocket body
Debris
Shape & HBR
Box + 1 Pan, 29 m
Radar Cross Section
41.120 m², Large (>1 m²)

Expand to show TLE details & history

TLE from 23 hours ago
0 STARLINK-33903
1 63828U 25092AA  25191.16465193  .00017595  00000-0  64723-3 0  9990
2 63828  43.0010 102.1832 0001478 277.6603  82.4080 15.27588119 11578
Epoch: 2025-07-10T03:57Z
TLE epoch observation values (Epoch: 2025-07-10T03:57:05.926Z)
Latitude
-0.00008°
Longitude
114.57356°
Altitude
482.667 km
Speed
7.626 km/s
True Right ascension
06h 48m 43s
True Declination
0° 00' 00"
Sunlit
Object was in daylight at epoch
Visualization orbit readout
Latitude
31.08545°
Longitude
-110.74336°
Altitude
484.577 km
Speed
7.627 km/s
Apparent Right ascension
19h 00m 21s
Apparent Declination
-17° 27' 25"
Sunlit
Object is in daylight
Visualization observer readout
Local Sidereal Time
14:46:05
Azimuth
120.468° SE
Elevation
7.653°
Doppler factor
1
Orbital elements
Apogee altitude
485.984 km
Perigee altitude
483.955 km
Semi-major axis
6,863.107 km
Eccentricity
0.00015
Inclination
43.001°
RAAN
102.1832°
Arg. of periapsis
277.6603°
True anomaly
Unknown
Mean anomaly
82.408°
Eccentric anomaly
Unknown
Mean motion
3.81735 °/min
Orbital period
94.31 mins
BSTAR
0.00064723
Loading maneuver chart data...
Loading SW <> Apogee altitude chart data...
Loading historical data...
Loading historical data...
Loading historical data...
Loading historical data...
Loading historical data...
Loading historical data...
Loading historical data...

STARLINK-33903 Visibility forecast

Observer location: undefined°, undefined°

Span
Click to sort rows by Start time (UTC) header in descending order
Start Az.
Max El. time (UTC)
Max El. Az.
Max El.
End time (UTC)
End Az.
5 mins2025-07-11 20:58:30.871Z207.109° SW2025-07-11 21:00:30.871Z148.175° SSE32.145°2025-07-11 21:03:30.871Z84.162° E
5 mins2025-07-11 22:37:30.871Z272.649° WNW2025-07-11 22:39:30.871Z10.758° NNE41.959°2025-07-11 22:42:30.871Z69.609° E
5 mins2025-07-12 00:16:30.871Z296.775° NW2025-07-12 00:18:30.871Z5.834° NNE39.006°2025-07-12 00:21:30.871Z81.664° E
5 mins2025-07-12 01:55:30.871Z279.669° WNW2025-07-12 01:57:30.871Z207.327° SW42.537°2025-07-12 02:00:30.871Z122.479° SE
|